FW9475 Weather Reports


time (UTC)temp
C
wind
direction
speed
KPH
gust
KPH
rain 1hr
cm
rain 24hr
cm
rain mn
cm
humidity
%
barometer
mb
20260508033055 9 0 0.0 1.6 0.00 0.00 0.00 80 1021.5
20260508031557 9 0 0.0 1.6 0.00 0.00 0.00 79 1021.4
20260508030059 10 0 0.0 1.6 0.00 0.00 0.00 78 1021.4
20260508024615 10 55 0.0 3.2 0.00 0.00 0.00 78 1021.3
20260508023053 10 215 0.0 1.6 0.00 0.00 0.00 78 1021.3
20260508021558 10 0 0.0 1.6 0.00 0.00 0.00 77 1021.3
20260508020053 10 0 0.0 0.0 0.00 0.00 0.00 76 1021.3
20260508014554 10 0 0.0 3.2 0.00 0.00 0.00 76 1021.5
20260508013051 10 0 0.0 1.6 0.00 0.00 0.00 75 1021.4
20260508011554 10 0 0.0 4.8 0.00 0.00 0.00 75 1021.5
20260508010054 10 0 0.0 3.2 0.00 0.00 0.00 74 1021.5
20260508004555 10 0 0.0 6.4 0.00 0.00 0.00 74 1021.6
20260508003050 10 0 0.0 6.4 0.00 0.00 0.00 74 1021.5
20260508001549 10 0 0.0 1.6 0.00 0.00 0.00 74 1021.7
20260508000052 10 232 0.0 4.8 0.00 0.00 0.00 73 1021.6
20260507234557 10 0 0.0 3.2 0.00 0.00 0.00 72 1021.7
20260507233046 11 0 0.0 4.8 0.00 0.00 0.00 71 1021.7
20260507231552 11 0 0.0 4.8 0.00 0.00 0.00 72 1021.8
20260507230107 11 0 0.0 6.4 0.00 0.00 0.00 73 1021.8
20260507224553 11 0 0.0 4.8 0.00 0.00 0.00 73 1021.8
20260507223049 11 311 0.0 1.6 0.00 0.00 0.00 75 1021.8
20260507221551 11 0 0.0 0.0 0.00 0.00 0.00 78 1021.7
20260507220054 11 0 0.0 0.0 0.00 0.00 0.00 80 1021.9
20260507214551 11 0 0.0 0.0 0.00 0.00 0.00 80 1021.8
20260507213048 11 0 0.0 0.0 0.00 0.00 0.00 79 1021.7
20260507211551 11 0 0.0 0.0 0.00 0.00 0.00 79 1021.6
20260507210105 11 0 0.0 0.0 0.00 0.00 0.00 79 1021.6
20260507204554 11 0 0.0 0.0 0.00 0.00 0.00 78 1021.5
20260507203114 11 0 0.0 0.0 0.00 0.00 0.00 77 1021.4
20260507201555 11 0 0.0 0.0 0.00 0.00 0.00 78 1021.3
20260507200057 11 0 0.0 0.0 0.00 0.00 0.00 78 1021.1
20260507194601 11 0 0.0 0.0 0.00 0.00 0.00 79 1020.9
20260507193052 11 0 0.0 0.0 0.00 0.00 0.00 78 1020.9
20260507191550 11 0 0.0 1.6 0.00 0.00 0.00 78 1021.0
20260507190055 11 0 0.0 1.6 0.00 0.00 0.00 79 1020.9
20260507184551 11 0 0.0 1.6 0.00 0.00 0.00 77 1020.8
20260507183056 11 0 0.0 1.6 0.00 0.00 0.00 77 1020.9
20260507181549 12 0 0.0 4.8 0.00 0.00 0.00 76 1020.8
20260507180053 12 271 0.0 3.2 0.00 0.00 0.00 76 1020.8
20260507174551 12 0 0.0 1.6 0.00 0.00 0.00 74 1020.8
20260507173124 12 0 0.0 0.0 0.00 0.00 0.00 74 1020.7
20260507171558 12 169 0.0 3.2 0.00 0.00 0.00 72 1020.8
20260507170050 13 248 0.0 4.8 0.00 0.00 0.00 72 1020.9
20260507164551 13 151 1.6 4.8 0.00 0.00 0.00 67 1020.9
20260507163047 13 265 0.0 3.2 0.00 0.00 0.00 65 1020.8
20260507161554 13 189 1.6 8.0 0.00 0.00 0.00 62 1020.8
20260507160101 14 153 1.6 4.8 0.00 0.00 0.00 59 1020.7
20260507154551 14 257 0.0 3.2 0.00 0.00 0.00 58 1020.7
20260507153050 14 0 0.0 1.6 0.00 0.00 0.00 57 1020.8
20260507151552 14 171 0.0 1.6 0.00 0.00 0.00 56 1020.8
20260507150054 15 0 0.0 3.2 0.00 0.00 0.00 55 1020.9
20260507144608 15 196 0.0 3.2 0.00 0.00 0.00 56 1020.9
20260507143101 15 254 0.0 4.8 0.00 0.00 0.00 56 1021.0
20260507141558 15 0 0.0 4.8 0.00 0.00 0.00 55 1021.1
20260507140049 15 146 1.6 3.2 0.00 0.00 0.00 55 1021.2
20260507134554 16 134 0.0 6.4 0.00 0.00 0.00 50 1021.2
20260507133125 16 196 1.6 6.4 0.00 0.00 0.00 50 1021.1
20260507131552 17 51 1.6 8.0 0.00 0.00 0.00 49 1021.1
20260507124556 16 108 0.0 8.0 0.00 0.00 0.00 46 1021.3
20260507123053 16 170 1.6 8.0 0.00 0.00 0.00 50 1021.3
20260507121553 16 306 1.6 6.4 0.00 0.00 0.00 48 1021.3
20260507120052 16 320 1.6 6.4 0.00 0.00 0.00 51 1021.5
20260507114600 17 218 1.6 8.0 0.00 0.00 0.00 50 1021.6
20260507113051 16 0 0.0 9.7 0.00 0.00 0.00 51 1021.7
20260507111555 16 19 0.0 8.0 0.00 0.00 0.00 57 1021.7
20260507110054 15 228 1.6 6.4 0.00 0.00 0.00 61 1021.9
20260507104552 14 0 0.0 6.4 0.00 0.00 0.00 65 1022.0
20260507103056 13 0 1.6 6.4 0.00 0.00 0.00 71 1021.9
20260507101550 12 51 0.0 6.4 0.00 0.00 0.00 70 1022.1
20260507100057 12 0 0.0 4.8 0.00 0.00 0.00 73 1022.1
20260507094559 11 171 0.0 3.2 0.00 0.00 0.00 75 1022.3
20260507093052 11 0 0.0 3.2 0.00 0.00 0.00 75 1022.4
20260507091554 11 13 0.0 4.8 0.00 0.00 0.00 75 1022.2
20260507090054 10 26 0.0 1.6 0.00 0.00 0.00 76 1022.3
20260507084557 10 0 0.0 3.2 0.00 0.00 0.00 79 1022.3
20260507083053 9 0 0.0 3.2 0.00 0.00 0.00 80 1022.3
20260507081551 8 0 0.0 3.2 0.00 0.00 0.00 81 1022.2
20260507080056 8 0 0.0 3.2 0.00 0.00 0.00 82 1022.1
20260507074557 8 0 0.0 1.6 0.00 0.00 0.00 83 1022.0
20260507073102 8 0 0.0 1.6 0.00 0.00 0.00 84 1022.0
20260507071553 8 0 0.0 3.2 0.00 0.00 0.00 84 1022.0
20260507070057 7 0 0.0 1.6 0.00 0.00 0.00 85 1022.0
20260507064557 7 0 0.0 0.0 0.00 0.00 0.00 86 1021.9
20260507063100 7 0 0.0 1.6 0.00 0.00 0.00 86 1021.8
20260507061549 7 0 0.0 1.6 0.00 0.00 0.00 87 1021.9
20260507060056 7 0 0.0 0.0 0.00 0.00 0.00 87 1021.7
20260507054551 6 0 0.0 1.6 0.00 0.00 0.00 87 1021.8
20260507053115 6 0 0.0 1.6 0.00 0.00 0.00 88 1021.6
20260507051555 6 0 0.0 0.0 0.00 0.00 0.00 88 1021.5
20260507050051 6 0 0.0 3.2 0.00 0.00 0.00 88 1021.5
20260507044603 6 248 0.0 1.6 0.00 0.00 0.00 89 1021.3
20260507043050 6 127 0.0 3.2 0.00 0.00 0.00 88 1021.3
20260507041552 6 0 0.0 1.6 0.00 0.00 0.00 88 1021.2
20260507040050 6 0 0.0 0.0 0.00 0.00 0.00 88 1021.3
20260507034554 6 0 0.0 1.6 0.00 0.00 0.00 88 1021.3